Vertical_Velocity
-1 -0 1 1 -0 -1 -3 -3 -2 -1 -1 -1 -1 -1 -0 -1 -1 -2 -2 -2 2 7 8 14 10 4 -1 -3 -5 -5 -4 -1 0 0 2 -1 -2 -2 -1 -1 -1 -1 -2 -2 -2 -2 -2 -3 1 4 2 -3 -4 -2 0 3 1 -3 -6 -4 -2 -2 -2 -1 -1 -0 -0 -1 -1 -1 -1 -1 -1 -1 -1 1 0 -0 -1 -1 -1 -1 -1 -0 -0 0 1 1 0 0 1 1 1 1 1 0 0 0 -0 -0 -0 -1 -1
-1 -0 -0 -0 -0 0 -1 -0 -1 -2 -1 -1 -1 -1 -0 -0 -1 -2 -2 -4 -2 4 12 8 6 4 2 -0 -2 -3 -0 -0 -1 -1 0 -1 -2 -2 -1 -1 -1 -2 -2 -2 -2 -2 -2 -2 3 7 -0 -3 -4 -3 -2 1 -1 -4 -6 -3 -2 -1 -2 -2 -1 -0 0 -1 -1 -1 -1 -1 -0 1 -0 0 -0 -1 -1 -1 -1 -1 -1 -1 -0 -0 -0 0 0 0 1 1 1 1 1 1 0 0 0 0 -0 -0 -0
-1 -1 -1 -1 -0 1 1 1 0 -1 -1 -1 -1 -1 -0 -0 -1 -1 -1 -3 -3 -1 4 9 7 3 2 1 0 0 2 1 0 -0 -0 -2 -2 -2 -1 -1 -1 -1 -1 -1 -1 -1 -1 -1 6 9 -1 -3 -4 -3 -2 -0 -2 -5 -4 -2 -1 -1 -2 -2 -1 -1 -1 -1 -1 -1 -1 -2 -1 -0 -2 -1 -1 -1 -1 -1 -1 -1 -1 -1 -1 -1 -0 -0 -0 -0 1 1 0 0 1 1 1 0 1 0 0 -0 -0
-1 -1 -2 -1 0 1 1 1 1 -0 -1 -0 -0 -0 -0 0 -0 -1 -1 -2 -2 -2 -2 3 4 4 3 2 3 4 2 1 1 1 -0 -2 -2 -2 -1 -0 -1 -1 -1 -0 -1 -1 -1 -2 3 5 -2 -3 -4 -4 -1 -1 -3 -5 -3 -1 -1 -2 -2 -2 -1 -1 -2 -2 -1 -1 -1 -2 -1 -1 -4 -2 -1 -1 -1 -1 -1 -1 -1 -1 -1 -1 -1 -1 -1 -1 -0 -0 -0 -0 0 0 0 1 1 0 0 0 -0
-0 -1 -2 -1 0 1 1 1 1 0 -2 -0 0 0 0 0 0 -0 -1 -1 -1 -1 -1 -1 0 3 5 3 4 4 2 -0 0 1 0 -2 -3 -2 -1 -0 -0 -0 -0 -0 -0 -1 -3 -4 -0 3 -2 -3 -4 -3 -0 -1 -3 -4 -2 -1 -1 -2 -2 -2 -1 -1 -2 -2 -1 -1 -1 -1 -2 -2 -2 -1 -1 -2 -1 -1 -1 -1 -1 -1 -1 -1 -1 -1 -1 -1 -1 -0 -0 -0 -0 -0 0 0 0 1 0 0 0
-0 -1 -1 -1 -0 0 0 1 1 1 0 0 0 1 0 1 0 -0 -1 -1 -1 -1 0 -1 -1 1 6 6 4 1 -1 -1 -0 0 -0 -2 -2 -1 -0 0 1 0 -0 -0 -1 -2 -6 -4 2 5 -0 -1 -1 -1 1 -1 -3 -4 -3 -1 -1 -2 -2 -2 -1 -1 -1 -1 -1 -1 -1 -1 -1 -2 -2 -2 -2 -2 -1 -1 -1 -1 -1 -1 -0 -0 -1 -1 -0 -0 -0 -0 -0 -0 -0 -0 0 0 0 0 0 0 0
-0 -0 -0 -0 -0 -0 0 -0 0 0 -0 0 0 1 0 0 0 -0 -1 -2 -2 -2 -2 -2 -2 -1 1 2 1 -0 -0 -0 0 1 0 -0 -1 -1 -0 1 1 1 0 -1 -1 -3 -5 -4 4 9 3 3 1 0 2 -0 -4 -5 -3 -1 -1 -1 -2 -1 -1 -1 -1 -1 -1 -0 -1 -1 -1 -1 -2 -3 -3 -2 -1 -1 -1 -1 -1 -0 -0 -0 -0 -0 -0 -0 -0 -0 -0 -0 -0 -0 -0 -0 -0 -0 -0 -0 -0
0 0 -0 -0 -0 -0 -0 -0 -0 -0 -1 -0 0 0 0 -0 -1 -1 -1 -2 -2 -1 -1 -1 -2 -2 -0 -1 -1 -0 -0 0 1 1 1 0 -0 -0 0 1 2 2 0 -1 -1 -2 -4 -4 2 6 5 3 1 1 3 0 -3 -5 -3 -1 -1 -1 -2 -2 -2 -2 -1 -1 -1 -0 -1 -1 -1 -1 -1 -2 -2 -1 -1 -1 -1 -1 -1 -0 -0 -0 -0 -0 -0 -0 -0 -0 -0 -0 -1 -0 -0 -0 -0 -0 -0 -0 -0
0 0 0 -0 -0 -0 -0 0 0 -0 -1 -0 -0 -0 -0 -0 -0 -0 -1 -3 -3 -2 -1 0 -1 -2 -1 -1 -1 -1 -0 1 1 2 1 1 0 0 0 1 2 2 1 -0 -1 -1 -2 -3 -0 4 6 2 2 4 6 2 -2 -4 -3 -1 -1 -1 -2 -2 -2 -2 -2 -1 -1 -0 -1 -1 -1 -1 -1 -1 -1 -1 -1 -1 -1 -1 -1 -0 -0 -0 -0 -0 -0 -0 -0 -0 -0 -1 -1 -1 -1 -1 -1 -1 -1 -1 -1
1 1 0 0 -0 -0 -0 0 1 0 -0 -0 -0 -0 -0 1 1 1 0 -2 -4 -3 0 -1 -1 -2 -3 -2 -2 -2 -1 1 1 1 1 1 1 0 1 1 2 2 1 0 0 -0 -1 -2 -1 1 6 3 3 6 7 1 -2 -4 -2 -1 -1 -2 -2 -2 -2 -2 -2 -1 -1 -1 -1 -1 -1 -1 -1 -1 -1 -1 -1 -1 -1 -1 -1 -1 -1 -1 -0 -0 -0 -0 -0 -0 -0 -0 -1 -1 -0 -0 -0 -0 -0 -0 -0
1 1 1 0 -0 -0 0 0 1 1 1 0 -0 -0 -0 1 1 1 1 -1 -3 -3 0 -1 -3 -4 -5 -3 -2 -2 -2 -0 0 0 1 1 1 1 1 1 2 2 1 1 1 1 -0 -1 -3 -1 5 2 2 3 4 -0 -3 -4 -2 -1 -2 -2 -2 -1 -2 -2 -2 -2 -1 -1 -1 -1 -1 -1 -1 -1 -1 -1 -1 -1 -1 -1 -1 -1 -1 -1 -0 -0 -0 -0 -0 -0 -0 -0 -0 -0 -0 -0 -0 -0 -0 0 0
2 2 1 1 0 0 0 1 1 1 1 1 0 0 1 2 2 1 1 -0 -2 -2 1 -0 -3 -4 -3 -2 -2 -2 -1 -1 -1 -0 1 1 1 1 0 1 1 1 1 1 1 1 0 -1 -3 -2 4 2 2 1 -1 -3 -4 -3 -2 -1 -2 -2 -2 -1 -2 -2 -2 -2 -2 -1 -1 -1 -1 -1 -1 -1 -1 -1 -1 -1 -1 -1 -1 -1 -1 -1 -1 -0 -0 -0 -0 0 -0 -0 -0 -0 -0 -0 -0 -0 -0 -0 -0
2 3 3 2 1 1 0 1 1 2 2 1 1 1 2 2 3 3 2 -0 -1 -1 0 0 -2 -2 2 3 -0 -3 -1 -1 -1 -1 0 1 1 1 1 1 1 1 1 1 1 1 0 -0 -3 -3 4 3 1 -1 -3 -5 -4 -3 -1 -1 -1 -2 -2 -2 -2 -3 -2 -2 -2 -1 -1 -1 -1 -1 -1 -1 -1 -2 -2 -1 -1 -1 -1 -1 -1 -1 -0 -0 -0 -0 -0 -0 -0 -0 -0 -0 -0 -1 -1 -1 -1 -1 -1
1 3 3 3 2 2 1 1 1 1 2 1 1 2 3 2 4 6 7 0 -1 -1 -1 0 -1 -1 3 7 4 -0 -1 -1 -1 -1 -0 0 1 1 1 1 1 1 1 1 1 1 0 -0 -2 -2 5 3 0 -2 -3 -5 -4 -3 -1 -1 -1 -1 -1 -1 -2 -3 -2 -2 -2 -1 -1 -1 -1 -1 -1 -1 -2 -2 -2 -1 -1 -1 -1 -1 -1 -1 -0 -0 -0 -0 -0 -0 -0 -0 -0 -1 -1 -1 -1 -1 -1 -1 -1
-1 1 3 3 3 2 1 1 1 1 1 1 1 1 2 2 3 5 9 3 -0 -1 -2 -0 -0 -1 -2 5 7 6 3 1 0 -0 0 -0 0 1 2 2 1 1 0 1 1 0 0 0 -1 -1 5 3 0 -2 -3 -4 -4 -3 -1 -2 -1 -1 -1 -1 -2 -2 -2 -3 -2 -1 -1 -1 -1 -1 -1 -1 -1 -2 -2 -1 -1 -1 -1 -1 -1 -1 -1 -0 -0 -0 -0 -0 -0 -0 -1 -1 -1 -1 -1 -1 -1 -1 -1
-1 -1 1 2 3 3 2 1 0 1 1 1 1 0 0 1 1 3 6 3 1 -0 -2 -1 -1 -1 -3 1 7 11 8 6 2 -0 1 -0 -1 -0 2 2 2 1 0 1 1 0 -0 0 -1 -1 3 3 1 -1 -3 -4 -4 -3 -2 -2 -2 -1 -1 -2 -2 -2 -2 -3 -2 -2 -2 -2 -1 -1 -1 -1 -1 -1 -1 -1 -1 -1 -1 -1 -2 -2 -1 -1 -1 -1 -0 -0 -0 -1 -1 -1 -1 -1 -1 -1 -1 -1 -1
-2 -2 -0 1 3 3 2 1 -0 0 1 1 0 -0 -0 -0 0 1 2 2 1 1 0 -1 -2 -2 -2 -1 4 9 9 6 0 -4 -1 -1 -3 -2 1 2 2 1 1 1 1 0 -0 0 -1 -1 1 3 1 -2 -3 -4 -3 -3 -2 -2 -2 -2 -1 -2 -2 -2 -3 -3 -2 -2 -3 -2 -2 -1 -1 -1 -1 -1 -1 -1 -1 -1 -1 -1 -1 -2 -2 -2 -1 -1 -1 -1 -1 -1 -1 -1 -1 -1 -1 -1 -1 -1 -0
-2 -3 -2 0 2 3 2 1 -0 -1 -0 -0 0 -0 -0 -0 0 1 1 2 2 2 2 -0 -2 -2 -2 -1 0 2 3 2 -2 -6 -4 -3 -4 -5 -2 1 2 1 1 1 1 1 0 -0 -1 -1 -0 3 1 -2 -4 -4 -3 -2 -2 -2 -2 -2 -1 -2 -2 -2 -2 -2 -2 -2 -2 -2 -2 -2 -2 -2 -2 -2 -2 -1 -1 -1 -1 -1 -1 -1 -2 -2 -2 -2 -1 -1 -1 -1 -1 -1 -1 -1 -1 -1 -1 -1 -1
-4 -4 -3 -0 1 2 2 1 -0 -1 -1 -1 -0 -0 -0 -0 0 1 1 1 1 2 3 1 -1 -2 -3 -2 -2 -2 -1 -0 -2 -4 -5 -4 -5 -5 -4 -1 1 1 1 0 0 0 0 -1 -2 -2 -1 2 0 -3 -5 -5 -3 -1 -1 -2 -2 -2 -2 -2 -2 -2 -2 -2 -2 -2 -2 -2 -3 -3 -2 -3 -3 -2 -3 -2 -2 -2 -2 -1 -1 -1 -1 -2 -2 -2 -1 -1 -1 -1 -1 -1 -1 -1 -0 -1 -1 -1 -1
-4 -4 -3 -1 1 2 1 0 -1 -1 -1 -1 -1 -1 -1 -1 1 2 2 0 0 1 2 1 0 -1 -3 -4 -4 -2 0 0 -0 -2 -3 -4 -4 -4 -5 -3 -1 0 2 0 -0 -1 -0 -3 -3 -2 -1 1 0 -2 -6 -6 -4 -1 -0 -1 -2 -2 -2 -2 -3 -3 -2 -2 -2 -2 -2 -2 -2 -3 -2 -3 -3 -3 -3 -3 -3 -3 -3 -3 -2 -1 -2 -2 -2 -2 -2 -2 -1 -1 -1 -0 -0 -0 -0 -0 -1 -1 -1
-4 -4 -2 -0 1 1 -1 -1 -2 -2 -1 -0 -1 -2 -3 -2 0 2 1 -1 -1 0 2 1 0 -1 -3 -4 -2 0 5 4 2 -0 -3 -4 -4 -3 -3 -2 -2 -1 1 2 -0 -2 -2 -4 -2 0 0 0 1 -1 -5 -6 -4 -1 0 -0 -1 -2 -2 -2 -2 -3 -3 -2 -2 -2 -2 -1 -1 -1 -2 -2 -2 -3 -3 -3 -3 -3 -3 -3 -3 -3 -3 -3 -3 -3 -3 -3 -3 -3 -3 -3 -2 -1 -1 -2 -2 -2 -2
-4 -4 -2 -0 2 2 -2 -4 -3 -2 -0 1 1 -1 -3 -2 0 2 1 -2 -1 1 2 2 -0 -2 -3 -3 -0 3 8 7 4 0 -3 -4 -4 -2 -1 -1 -2 -3 -2 1 1 -2 -4 -4 1 6 3 0 1 1 -2 -5 -4 -2 0 -0 -0 -1 -1 -1 -1 -2 -3 -3 -2 -0 -0 -0 -0 -0 -1 0 -0 -1 -3 -3 -2 -2 -2 -3 -3 -3 -4 -4 -4 -4 -4 -4 -4 -5 -5 -5 -4 -3 -3 -4 -4 -3 -3
-3 -3 -1 2 4 3 -3 -6 -4 -2 1 3 3 2 -1 -1 2 6 7 3 1 1 2 0 -1 -2 -2 -2 -0 3 7 8 5 0 -3 -4 -4 -4 -2 -0 -1 -3 -6 -1 0 -1 -4 -3 4 9 7 1 1 3 3 -3 -4 -2 -0 -0 -0 -0 -1 -1 -1 -1 -2 -2 -1 0 1 -0 -1 -1 -2 -1 -0 -1 -2 -2 -1 -1 -1 -2 -2 -2 -3 -3 -4 -4 -3 -4 -4 -4 -4 -3 -3 -2 -3 -4 -4 -3 -3
-1 -0 2 4 5 3 -3 -6 -5 -1 2 4 4 4 2 0 3 8 14 11 6 1 -0 -1 -2 -1 -0 -1 -1 1 4 6 4 -0 -3 -3 -5 -6 -4 -1 -0 -1 -4 -3 -2 -1 -3 -1 3 7 7 2 2 4 5 -0 -2 -1 -1 -0 -0 -0 -0 -1 -1 -1 -1 -1 -1 -1 -1 -1 -1 -1 -1 -1 -1 -1 -1 -1 -1 -0 -1 -2 -2 -2 -2 -3 -3 -3 -3 -3 -3 -3 -4 -3 -2 -1 -1 -2 -2 -2 -2
0 3 7 4 2 1 -2 -5 -4 -1 3 5 5 5 4 2 1 1 6 10 6 1 -1 -1 -1 -0 1 0 -0 -0 1 3 2 0 -2 -3 -5 -6 -5 -2 -1 -0 -1 -2 -2 -2 -1 0 1 2 4 2 3 4 3 1 -0 -0 -1 -0 -0 -0 -0 -1 -1 -1 -1 -1 -1 -1 -1 -1 -1 -1 -1 -1 -0 -0 1 1 -0 -1 -1 -1 -1 -2 -2 -2 -2 -2 -3 -3 -1 -0 -1 -3 -4 -3 -2 -1 -2 -2 -1
1 3 5 2 1 -0 -1 -4 -3 -1 2 5 5 5 6 5 1 -3 -5 1 2 1 0 1 1 1 1 0 0 0 1 0 0 -0 -1 -2 -3 -4 -5 -4 -3 -1 -1 -1 -2 -1 0 1 0 -0 -0 -0 3 4 2 1 1 0 -0 -0 -0 0 -0 -1 -1 -1 -1 -1 -1 -1 -1 -1 -1 -1 -1 -1 -1 -0 0 0 1 1 0 0 -1 -1 -1 -0 -1 -2 -2 -2 -2 -1 0 1 0 -1 -3 -2 -2 -1 5
2 1 -0 0 0 0 1 -4 -5 -3 0 4 5 4 4 4 2 -2 -6 -5 -3 -0 2 2 2 2 1 -2 -1 1 1 -1 -3 -3 -2 -1 -1 -1 -3 -4 -3 -2 -2 -2 -1 -0 1 1 -0 -1 -2 -2 2 4 1 1 1 0 -0 -0 0 0 0 -1 -1 -1 -1 -1 -1 -1 -1 -0 -0 -1 -1 -1 -1 -0 -1 -1 -0 1 1 0 0 -0 -0 -0 -0 -0 -0 -1 -1 -2 -4 -0 3 4 -1 -2 -3 1 11
2 0 -3 -2 -0 0 0 -6 -7 -5 -0 4 4 3 1 2 2 1 -4 -5 -5 -4 -0 2 1 0 -1 -5 -3 1 5 5 2 -1 -3 -0 1 1 0 -0 -1 -1 -1 -1 -1 0 1 1 -0 -1 -1 -2 2 4 0 0 1 0 -0 -0 0 1 0 -0 -1 -1 -1 -1 -1 -1 -1 -0 -0 -0 -0 -0 -1 -0 -0 -0 -0 -0 -0 -1 -1 -1 -0 -1 -1 -1 -0 -0 -0 -1 -3 -4 -2 -0 -2 -3 -3 -2 3
3 2 -2 -1 -0 -1 -5 -8 -8 -6 2 4 5 4 3 -0 1 2 -1 -3 -4 -4 -2 0 1 0 -1 -1 -1 1 7 13 12 7 0 -0 0 1 1 1 1 1 0 -0 0 1 2 0 -1 -1 -1 -1 1 3 0 -0 -0 -0 -1 -0 0 1 1 -0 -1 -1 -1 -1 -1 -1 -1 -0 -0 -0 -0 -0 -0 -0 -1 -0 -0 -0 -1 -1 -1 -1 -1 -1 -1 -0 -0 0 -0 -0 -0 -1 -2 -3 -4 -5 -4 -4 -3
2 2 -0 -0 -5 -12 -16 -10 -7 -4 8 7 7 7 7 -1 -1 1 0 -1 -2 -2 -2 -0 -0 -1 -0 8 8 5 6 10 11 10 6 2 1 -0 0 0 0 1 2 1 1 1 2 -0 -1 -2 -2 -2 0 2 3 -0 -1 -1 -1 -0 0 1 0 -0 -1 -1 -1 -1 -1 -1 -1 -1 -0 -0 0 -0 -0 -1 -1 -1 -1 -1 -1 -1 -1 -1 -1 -1 -1 -1 -0 -0 0 0 0 0 -0 -2 -4 -4 -4 -3 -4
1 1 0 -1 -7 -13 -15 -11 -8 -2 11 10 8 8 10 -0 -3 -1 0 -0 -1 -2 -2 -1 -2 -2 -1 10 13 11 8 4 4 7 9 6 3 0 -1 -0 1 1 2 1 1 2 2 2 1 -1 -2 -2 -0 2 4 0 -1 -1 -1 -1 -0 0 -0 -1 -1 -1 -1 -1 -1 -1 -1 -1 -0 -0 -0 -0 -0 -1 -1 -1 -1 -1 -1 -1 -1 -1 -1 -1 -1 -0 -1 -1 -0 0 0 -0 -0 -1 -0 -1 -1 -2 -3
1 1 1 -2 -5 -7 -9 -10 -7 -2 6 6 7 9 10 0 -4 -3 -0 0 -0 -2 -3 -2 -2 -2 -1 7 10 9 7 1 0 4 11 8 4 1 -0 1 2 3 2 1 1 1 2 4 4 4 2 1 1 2 6 2 -0 -1 -1 -1 -1 -0 -1 -1 -1 -1 -1 -1 -1 -1 -1 -1 -1 -0 -0 -0 -1 -1 -1 -1 -1 -1 -1 -1 -1 -0 -0 -0 -0 -0 -1 -1 -0 -0 -0 -1 -1 -1 -1 -1 -0 -0 -1
1 2 2 -1 -4 -6 -6 -5 -4 -2 -0 1 4 8 12 2 -4 -5 -2 0 1 -0 -1 0 0 -0 -1 3 3 1 1 -2 -1 3 13 8 4 0 -0 1 2 3 3 1 -0 -0 1 2 4 5 6 5 5 5 7 5 2 -1 -1 -1 -1 -1 -1 -1 -1 -1 -1 -1 -1 -1 -1 -1 -1 -0 -0 -1 -1 -1 -1 -1 -1 -1 -1 -0 -0 -0 0 0 0 -0 -0 -0 -0 -1 -1 -1 -1 -1 -1 -0 -0 -0 -0
1 2 4 1 -2 -4 -3 -1 0 -0 -2 -2 2 7 12 4 -2 -5 -3 -1 1 1 1 2 3 2 -1 1 -1 -3 -3 -1 2 4 8 5 1 -1 -1 0 2 3 3 1 -1 -1 -1 -0 0 1 2 4 4 5 6 6 3 -0 -1 -1 -2 -2 -2 -2 -1 -1 -0 -1 -1 -1 -1 -1 -1 -1 -1 -1 -1 -1 -1 -1 -1 -0 -0 -0 -0 -0 0 0 0 0 0 0 -0 -1 -1 -1 -1 -1 -1 -1 -0 -0 -0
2 3 5 4 1 -1 -1 -0 0 -0 -3 -4 -1 4 10 6 0 -4 -4 -3 -1 -0 0 3 4 4 -0 0 -1 -3 -5 -2 1 3 4 1 -0 -1 -1 -0 1 2 3 2 0 -1 -2 -2 -2 -2 -1 -1 0 1 2 3 3 1 -1 -2 -3 -3 -3 -2 -2 -1 -0 -1 -1 -1 -1 -1 -1 -1 -1 -1 -1 -1 -1 -0 -0 -0 -0 -0 -0 -0 0 0 0 0 0 0 -0 -0 -1 -0 -0 -0 -1 -1 -1 -1 -1
4 5 6 4 2 -0 -1 -0 0 -0 -2 -5 -4 1 9 9 3 -4 -6 -5 -4 -2 -0 2 4 4 -0 0 -0 -1 -2 -4 -3 -1 1 -0 -1 -1 -2 -1 1 2 4 3 1 -1 -2 -2 -2 -2 -2 -1 -1 -1 -0 0 2 2 0 -2 -3 -4 -4 -3 -2 -1 -0 -0 -1 -1 -1 -1 -1 -1 -1 -1 -1 -1 -0 -0 -0 -0 -0 -0 -0 -0 0 0 0 0 -0 -0 -0 -0 -0 -0 -0 -0 -1 -0 -0 -0 -0
5 6 6 5 3 1 0 1 3 4 3 -2 -4 -0 7 8 3 -4 -8 -6 -5 -4 -1 1 2 2 -1 -1 -1 -1 -0 -2 -3 -3 -1 -0 -0 -1 -2 -1 0 2 4 4 2 -1 -3 -2 -2 -2 -1 -0 -0 -0 -0 -0 1 2 2 -1 -4 -4 -4 -3 -2 -1 -0 -0 -1 -1 -1 -1 -1 -1 -1 -1 -1 -0 -0 -0 -0 -0 -1 -1 -0 -0 0 0 0 0 -0 -0 -0 -0 -0 -0 -0 -0 -1 -0 -0 -0 -0
5 5 5 5 4 2 1 3 6 8 5 -0 -2 -0 3 4 0 -5 -9 -7 -6 -4 -1 -2 -2 -2 -1 -3 -3 -2 -0 -1 -2 -2 -1 -1 0 1 0 0 1 2 4 4 2 -1 -4 -4 -3 -2 -1 -0 0 0 -0 -0 0 1 2 -0 -3 -5 -5 -3 -2 -1 -1 -0 -0 -0 -0 -0 -1 -1 -1 -1 -0 -0 -0 -0 -0 -1 -1 -1 -0 -0 0 1 1 0 0 -0 -0 -0 -0 -0 -0 -0 -0 -0 -0 -0 -0
5 4 3 4 3 2 2 5 7 6 2 0 -0 0 1 1 -0 -2 -6 -6 -6 -5 -3 -7 -7 -5 -2 -3 -4 -3 -2 -1 -1 -1 -3 -2 -0 2 3 1 1 2 4 4 2 -1 -5 -4 -2 -1 -1 -0 -0 -0 -0 -0 -0 0 1 0 -2 -4 -5 -4 -3 -2 -2 -1 -0 0 0 -0 -0 -0 -1 -0 -0 -0 -0 -0 -1 -1 -1 -1 -0 0 0 1 1 1 0 0 0 0 0 0 0 0 0 0 0 0 0
4 2 1 2 2 2 3 8 8 5 2 0 1 1 -1 -0 2 2 -0 -2 -2 -2 -2 -7 -8 -8 -6 -4 -3 -3 -4 -1 1 1 -2 -4 -1 3 5 2 1 2 3 4 2 -2 -5 -4 -2 -0 -0 -0 -0 -0 -1 -1 -1 -0 -0 -0 -1 -3 -4 -4 -4 -4 -4 -3 -2 -1 -0 -0 -0 -0 -0 0 0 0 0 -0 -0 -1 -1 -1 -0 -0 0 0 1 1 1 1 1 1 1 1 1 1 1 1 0 0 0
2 1 0 1 2 3 5 7 7 5 2 0 1 0 -2 -1 2 4 3 1 1 1 1 -3 -8 -12 -11 -6 -3 -2 -3 -2 -0 1 -0 -2 -0 3 6 3 1 1 3 3 1 -3 -5 -3 -1 -0 0 0 0 -0 -1 -1 -1 -1 -1 -1 -1 -2 -2 -3 -3 -4 -5 -4 -4 -2 -1 -1 -0 -0 -0 0 0 0 0 0 0 -0 -0 -0 -0 0 0 0 1 1 1 1 1 1 1 1 1 1 1 1 0 0 0
1 0 -0 1 2 3 4 5 5 4 2 1 1 0 -2 -1 1 3 3 0 0 1 3 1 -5 -9 -10 -5 -3 -2 -2 -2 -2 -2 -1 -0 2 5 7 3 2 1 3 2 -0 -3 -6 -4 -1 0 1 1 1 0 -0 -1 -1 -1 -1 -1 -1 -1 -1 -1 -2 -3 -3 -4 -4 -3 -2 -2 -1 -1 -1 -1 -1 -0 0 0 0 0 0 0 0 0 0 0 0 1 1 1 1 1 1 1 1 0 0 0 0 0 0
1 -0 -1 1 1 2 2 4 4 3 1 1 1 1 -0 -0 1 3 2 -1 -1 -0 1 1 -0 -2 -3 -2 -1 -1 -2 -2 -3 -3 -3 -0 3 6 6 3 2 1 3 2 -1 -4 -6 -4 -2 -0 0 0 0 0 -0 -0 -1 -1 -1 -2 -2 -1 -1 -1 -1 -2 -2 -2 -3 -3 -3 -2 -2 -2 -2 -2 -1 -1 -0 -0 0 0 0 0 0 0 0 0 0 0 0 0 0 0 0 0 0 0 0 0 0 0 0
1 0 -1 -0 0 1 2 3 3 2 2 2 2 2 0 0 1 2 1 -0 -1 -0 1 1 2 1 0 -1 -1 -1 -2 -3 -3 -3 -3 -0 2 4 3 2 2 2 2 -0 -4 -6 -6 -4 -2 -1 -1 -1 -0 -0 0 0 -0 -0 -1 -1 -2 -2 -2 -2 -1 -1 -1 -1 -1 -1 -1 -1 -1 -2 -2 -2 -1 -1 -0 -0 0 0 0 0 1 0 0 0 0 0 0 0 0 0 0 0 0 0 0 0 0 0 0
2 0 -0 -1 -0 1 2 3 3 3 2 2 2 1 -0 0 1 1 1 0 -0 0 1 1 2 3 1 -1 -2 -2 -3 -3 -2 -2 -1 0 2 3 2 2 3 4 1 -4 -7 -8 -6 -4 -3 -2 -2 -1 -1 -0 0 1 1 1 0 -1 -1 -2 -2 -2 -2 -1 -1 -1 -1 -0 -0 -0 -1 -1 -1 -2 -1 -1 -0 0 0 1 1 1 1 1 0 -0 -0 0 0 0 0 0 0 0 0 0 0 0 0 0 -0
1 -0 -1 -2 -2 -0 2 4 4 3 2 2 2 1 -1 -0 -0 0 1 0 1 1 2 2 2 3 3 -2 -3 -4 -3 -2 -1 0 1 2 2 3 3 4 5 4 -1 -5 -7 -7 -6 -5 -4 -3 -2 -2 -1 -1 0 1 1 2 1 -0 -1 -1 -1 -2 -2 -2 -2 -1 -1 -0 0 0 -0 -1 -1 -1 -1 -1 -0 1 1 2 2 2 1 1 -0 -0 -0 -0 0 0 0 0 1 1 1 0 0 0 0 -0 -0
0 -1 -3 -3 -2 -1 3 4 4 3 1 1 1 -1 -2 -2 -1 -1 -0 0 0 1 1 1 2 3 3 -3 -6 -6 -4 -2 1 2 4 4 3 3 4 6 4 1 -3 -1 -0 -2 -4 -3 -3 -2 -2 -1 -1 -1 -0 1 2 2 1 1 0 -0 -1 -1 -2 -2 -2 -1 -1 -0 0 0 -0 -0 -1 -1 -1 -1 0 1 1 2 2 2 1 1 -0 -0 -0 -0 -0 -0 -0 0 1 0 0 0 -0 -0 -1 -1 -1
1 -1 -3 -2 -1 0 3 4 3 2 1 -0 -1 -3 -4 -2 -2 -2 -1 -1 -0 -0 0 1 1 2 3 -4 -7 -7 -5 -3 0 3 5 5 4 3 4 3 -1 -4 -2 3 3 1 -1 -1 -1 -1 -1 -1 -1 -1 -0 0 1 1 1 1 1 0 -0 -1 -2 -2 -2 -1 -1 -0 0 0 0 -0 -1 -1 -0 -0 0 -0 -0 0 0 1 1 0 0 0 0 0 -0 -0 -0 0 0 0 -0 -0 -1 -1 -1 -1 -2
1 -1 -2 -0 0 1 2 3 3 2 1 -1 -2 -3 -3 -1 -1 -1 -1 0 0 0 1 0 1 1 3 -1 -4 -5 -4 -3 -0 3 6 6 5 5 4 -1 -5 -6 -1 1 1 0 -0 -0 -0 -0 -0 -0 -0 -0 0 1 1 1 1 1 0 -0 -0 -1 -1 -2 -2 -1 -1 -0 1 1 1 0 -0 -0 -0 -0 -0 -1 -2 -2 -1 -1 -0 0 1 1 1 0 -0 -0 -0 -0 -0 -0 -1 -1 -1 -1 -2 -2 -2
1 -0 -1 0 -0 -0 0 2 2 2 0 -1 -2 -1 -0 1 1 0 1 1 1 1 1 0 0 1 1 -0 -2 -3 -4 -2 -0 3 7 6 5 2 2 -3 -5 -5 -2 -1 -0 -0 0 0 0 0 0 0 0 1 1 1 1 1 1 0 -0 -1 -0 -0 -1 -1 -2 -2 -1 -0 1 1 1 0 -0 -0 -0 -0 -1 -1 -1 -2 -2 -1 -1 -0 1 1 1 0 -0 -0 -0 -0 -1 -1 -1 -1 -2 -2 -2 -2 -2
1 0 -1 -1 -1 -1 -0 1 1 1 1 0 1 2 2 1 1 1 1 1 1 0 -0 -1 -0 1 1 -0 -2 -3 -4 -2 -1 1 4 4 2 -1 -5 -6 -4 -2 -1 -0 -0 -0 0 -0 -0 0 1 1 1 1 2 2 2 2 1 -0 -1 -1 -1 -0 -0 -0 -1 -2 -2 -1 0 0 0 0 0 -0 -0 -0 -0 -0 -1 -1 -1 -1 -1 -1 -0 -0 0 -0 -0 -0 -0 -1 -1 -1 -1 -2 -2 -2 -2 -2 -1
2 1 -0 -1 -1 -1 -0 1 1 1 2 2 3 3 2 1 0 0 -0 -0 -0 -0 -1 -3 -2 -0 2 1 1 -0 -2 -1 -1 -1 -2 -0 1 0 -4 -3 -1 0 -0 -1 -1 -1 -0 -1 -1 -0 0 1 1 1 2 2 2 2 1 0 -0 -1 -0 0 0 -0 -1 -1 -1 -1 -0 -0 0 1 1 1 0 -0 -0 -0 -0 -0 -0 -1 -1 -2 -2 -1 -0 -0 -0 -0 -1 -1 -1 -1 -1 -1 -1 -1 -1 -1 -1
5 4 1 0 -1 -1 -0 0 0 1 2 2 1 1 1 1 -0 -1 -1 -0 1 1 1 -1 -2 -3 -0 2 2 2 -0 -1 -1 -0 1 1 2 3 4 3 1 -0 -1 1 2 2 0 -2 -2 -1 0 1 1 1 2 2 3 2 1 0 -0 -0 0 0 0 -0 -0 -0 -0 -0 -1 -0 0 1 2 1 1 0 -0 -0 -0 -1 -1 -1 -1 -2 -2 -1 -0 -0 -0 -0 -0 -0 -0 -1 -1 -1 -1 -1 -0 0 -0
12 8 2 0 -1 -1 -1 -1 -1 0 2 1 -1 -2 -1 0 0 -0 -0 0 1 1 1 2 -0 -2 -2 -0 1 0 -0 -1 -1 1 4 4 1 -1 1 0 -1 -2 1 2 4 4 -2 -4 -3 -0 2 1 1 1 1 2 2 2 2 1 1 1 1 0 -0 -0 -0 -0 -0 -0 -1 -1 -1 -0 0 0 0 -0 -0 -0 -1 -1 -1 -1 -1 -0 -0 0 -0 -0 -1 -0 0 0 -0 -0 -1 -1 -0 -0 0 0 -0
17 13 5 1 -1 -3 -4 -2 -1 -0 1 1 -0 -1 -2 -0 -0 -0 -0 -1 -1 -0 -0 1 1 -0 -3 -2 -2 -1 -1 -2 -2 -1 2 4 1 -4 -8 -4 -1 2 4 3 1 -1 -2 -2 -1 0 1 1 0 0 0 1 2 2 2 2 1 1 1 -0 -0 -0 0 1 1 -0 -1 -2 -3 -3 -2 -1 -1 -0 -0 -0 -1 -1 -0 -0 0 1 1 0 -1 -1 -0 1 1 1 -0 -0 -0 -0 -0 -0 -0 -0 -0
19 16 9 3 -1 -4 -5 -1 0 0 0 -0 -1 -2 -3 -1 -0 1 1 0 1 1 1 0 -0 -1 -2 -3 -3 -2 -1 -2 -2 -1 1 3 3 2 -0 -2 -1 0 3 1 -3 -5 -0 3 2 -0 -0 0 0 -0 -0 1 2 2 2 2 1 1 1 0 0 0 1 1 1 0 -1 -1 -2 -2 -2 -2 -1 -1 -1 -1 -1 -0 0 1 1 1 1 -1 -2 -1 1 2 1 1 -0 -0 -0 -0 -0 -0 -0 -1 -1
20 16 9 2 -2 -4 -4 -1 -0 0 0 -1 -2 -2 -2 0 2 3 3 3 3 2 1 1 0 0 1 -3 -4 -3 -2 -1 -1 -1 1 2 3 4 5 3 -0 -4 -6 -6 -7 -6 -1 4 2 -1 -1 0 0 0 1 2 2 3 2 2 1 1 0 0 0 0 1 1 0 -0 -0 -0 -0 -0 -1 -1 -1 -1 -1 -1 -0 0 1 2 2 1 -1 -3 -3 -1 1 1 1 0 -0 -0 -0 0 0 0 -0 -0 -0
18 13 7 2 -1 -3 -3 -2 -1 -0 -0 -0 -0 0 1 2 3 2 1 1 1 0 2 3 2 1 1 -3 -4 -2 -1 -1 -1 -1 0 1 3 4 4 3 3 2 -1 -1 -2 -3 -1 3 2 0 -1 0 1 1 1 2 2 2 2 1 1 0 -0 -0 -0 -0 -0 -0 -0 -0 0 0 0 0 0 -0 -0 -0 0 0 0 1 1 2 1 0 -1 -2 -2 -1 0 1 1 0 0 0 0 1 1 1 0 -0 -0
16 10 5 2 -0 -2 -2 -1 -1 -1 -1 -0 1 1 1 1 -0 -1 -2 -1 0 1 3 3 2 0 -2 -5 -4 -2 -1 -2 -2 -1 0 2 2 3 4 5 4 2 2 3 2 -0 -2 -1 1 1 0 0 2 2 1 1 1 1 1 1 1 0 -0 -0 -0 -0 -0 -0 0 0 -0 -0 -0 -1 -0 -0 1 1 1 0 0 1 1 1 0 -1 -1 -1 -0 1 2 2 1 1 1 1 1 1 1 1 1 -0 -1
14 8 3 2 -0 -1 -0 0 -0 -2 -2 -2 -1 -0 -1 -2 -2 -2 -0 2 4 4 2 1 2 1 -3 -6 -6 -4 -3 -2 -2 -1 0 0 -0 0 4 4 3 2 1 2 2 2 -0 -4 -4 -3 -2 -4 -2 1 2 1 0 0 -0 0 0 0 -0 -0 -0 -0 -0 0 0 0 -0 -0 -1 -0 -0 1 1 2 1 0 -0 0 1 0 -1 -2 -1 0 2 2 3 1 1 0 1 1 1 1 1 1 0 -0 -1
10 5 2 1 -0 -1 -0 -1 -2 -3 -4 -3 -3 -2 -3 -2 -2 -1 2 5 6 4 2 3 5 4 -2 -6 -5 -3 -2 -1 -1 -2 -1 -2 -3 -2 3 4 3 2 1 1 2 4 3 1 -1 -3 -5 -5 -4 -3 -1 -1 -0 -0 -0 -0 -0 -0 -1 -0 0 0 1 1 0 0 0 0 1 1 1 2 2 2 1 0 -0 0 1 -0 -2 -2 -1 1 2 3 2 0 -0 0 1 1 1 1 2 1 -0 -1 -2
Height
1529 1529 1529 1529 1529 1530 1530 1531 1531 1531 1532 1532 1532 1532 1532 1533 1533 1533 1533 1533 1534 1535 1536 1536 1535 1535 1536 1537 1537 1538 1539 1540 1540 1541 1541 1541 1542 1542 1543 1544 1544 1545 1545 1546 1546 1546 1546 1546 1547 1547 1547 1547 1548 1548 1548 1548 1547 1546 1546 1546 1547 1547 1547 1547 1547 1547 1547 1547 1547 1547 1547 1547 1547 1547 1547 1548 1548 1547 1547 1547 1547 1547 1547 1547 1547 1547 1548 1548 1547 1547 1547 1548 1548 1548 1548 1548 1548 1548 1548 1548 1548 1548 1548
1528 1529 1529 1529 1529 1530 1530 1530 1531 1531 1531 1532 1532 1532 1532 1533 1533 1533 1533 1534 1534 1535 1536 1536 1536 1536 1536 1537 1537 1538 1539 1540 1540 1541 1541 1541 1542 1542 1543 1544 1544 1545 1545 1546 1546 1546 1546 1546 1547 1547 1547 1547 1548 1548 1548 1548 1547 1546 1546 1547 1547 1547 1547 1547 1547 1547 1547 1547 1547 1547 1547 1547 1548 1548 1548 1548 1548 1547 1547 1547 1547 1547 1547 1547 1547 1547 1547 1548 1547 1547 1547 1547 1548 1548 1548 1548 1548 1548 1548 1548 1548 1548 1548
1528 1528 1528 1528 1529 1529 1530 1530 1531 1531 1531 1532 1532 1532 1532 1533 1533 1533 1533 1533 1534 1535 1535 1537 1537 1536 1536 1537 1537 1538 1539 1539 1540 1541 1541 1541 1542 1542 1543 1543 1544 1545 1545 1546 1546 1546 1546 1546 1547 1548 1547 1547 1548 1548 1548 1547 1547 1546 1546 1547 1547 1547 1547 1547 1547 1547 1547 1547 1547 1547 1547 1547 1548 1548 1548 1548 1548 1547 1547 1547 1547 1547 1547 1547 1547 1547 1547 1547 1547 1547 1547 1547 1547 1547 1548 1548 1548 1548 1548 1548 1548 1548 1548
1528 1528 1528 1528 1528 1529 1529 1530 1531 1531 1531 1531 1532 1532 1532 1532 1533 1533 1533 1533 1534 1534 1535 1536 1537 1537 1537 1537 1538 1538 1538 1539 1540 1541 1541 1541 1541 1542 1543 1543 1544 1545 1545 1546 1546 1546 1546 1546 1547 1547 1547 1547 1548 1548 1548 1547 1547 1547 1547 1547 1547 1547 1547 1547 1547 1547 1547 1547 1547 1547 1547 1547 1548 1548 1548 1548 1547 1547 1547 1547 1547 1547 1547 1547 1547 1547 1547 1547 1547 1547 1547 1547 1547 1547 1547 1547 1548 1548 1548 1548 1548 1548 1548
1527 1527 1527 1527 1528 1529 1529 1530 1530 1531 1531 1531 1531 1532 1532 1532 1533 1533 1533 1533 1533 1534 1535 1535 1536 1536 1537 1537 1537 1538 1538 1539 1540 1540 1541 1541 1541 1542 1542 1543 1544 1544 1545 1546 1546 1546 1546 1546 1547 1548 1547 1547 1547 1548 1548 1547 1547 1546 1547 1547 1547 1547 1547 1547 1547 1547 1547 1547 1547 1547 1547 1547 1547 1548 1548 1547 1547 1547 1547 1547 1547 1547 1547 1547 1547 1547 1547 1547 1547 1547 1547 1547 1547 1547 1547 1547 1547 1548 1548 1548 1548 1548 1548
1527 1527 1527 1527 1527 1528 1529 1529 1530 1530 1531 1531 1531 1531 1532 1532 1532 1533 1533 1533 1533 1533 1534 1535 1536 1536 1537 1536 1537 1537 1538 1539 1540 1540 1540 1541 1541 1542 1542 1543 1544 1544 1545 1545 1546 1546 1546 1546 1547 1548 1548 1547 1547 1548 1548 1547 1546 1546 1547 1547 1547 1547 1547 1547 1547 1547 1546 1546 1546 1547 1547 1547 1547 1547 1547 1547 1547 1546 1547 1547 1547 1547 1547 1547 1547 1547 1547 1547 1547 1547 1547 1547 1547 1547 1547 1547 1548 1548 1548 1548 1548 1548 1548
1526 1526 1526 1527 1527 1527 1528 1529 1529 1530 1530 1531 1531 1531 1531 1532 1532 1533 1533 1533 1533 1533 1533 1534 1535 1536 1536 1537 1537 1537 1538 1539 1539 1540 1540 1540 1541 1541 1542 1543 1544 1544 1545 1545 1545 1545 1545 1546 1547 1548 1548 1548 1548 1548 1548 1547 1546 1546 1546 1547 1547 1547 1547 1547 1547 1546 1546 1546 1546 1546 1547 1547 1547 1547 1547 1547 1547 1546 1547 1547 1547 1547 1547 1547 1547 1547 1547 1547 1547 1547 1547 1547 1547 1547 1547 1548 1548 1548 1548 1548 1548 1548 1548
1526 1526 1526 1526 1527 1527 1527 1528 1529 1529 1530 1530 1530 1531 1531 1531 1531 1532 1532 1532 1532 1533 1534 1534 1534 1535 1536 1536 1537 1537 1538 1538 1538 1539 1539 1540 1540 1541 1542 1543 1543 1544 1544 1545 1545 1545 1545 1545 1546 1547 1548 1548 1548 1548 1547 1546 1546 1546 1546 1547 1547 1547 1547 1547 1546 1546 1546 1546 1546 1546 1546 1546 1547 1547 1547 1547 1547 1547 1547 1547 1547 1547 1547 1547 1547 1547 1547 1547 1547 1547 1547 1547 1547 1548 1548 1548 1548 1548 1548 1548 1548 1547 1547
1526 1526 1526 1526 1526 1526 1527 1527 1528 1528 1529 1529 1530 1530 1530 1531 1531 1532 1532 1532 1532 1533 1533 1534 1534 1535 1535 1536 1536 1537 1537 1537 1538 1538 1539 1539 1540 1541 1541 1542 1543 1543 1544 1544 1545 1545 1545 1545 1546 1547 1548 1548 1548 1548 1547 1546 1546 1546 1546 1546 1547 1547 1547 1547 1546 1546 1546 1546 1546 1546 1546 1546 1546 1546 1546 1546 1546 1546 1547 1547 1547 1547 1547 1547 1547 1547 1547 1547 1547 1547 1547 1547 1547 1548 1548 1548 1548 1548 1548 1547 1547 1547 1547
1526 1526 1526 1526 1526 1526 1526 1527 1527 1528 1528 1529 1529 1530 1530 1531 1531 1531 1532 1532 1532 1532 1533 1534 1534 1535 1535 1535 1536 1536 1537 1537 1537 1538 1538 1539 1540 1540 1541 1542 1542 1543 1544 1544 1544 1545 1545 1545 1545 1546 1547 1547 1548 1548 1547 1546 1546 1545 1546 1546 1547 1547 1547 1547 1546 1546 1546 1546 1546 1546 1546 1546 1546 1546 1546 1546 1546 1546 1546 1547 1547 1547 1547 1547 1547 1547 1547 1547 1547 1547 1547 1547 1547 1547 1548 1548 1548 1547 1547 1547 1547 1547 1547
1525 1526 1526 1526 1526 1526 1526 1526 1526 1527 1528 1528 1529 1529 1529 1530 1531 1531 1531 1531 1531 1532 1532 1533 1534 1534 1535 1535 1536 1536 1536 1537 1537 1537 1538 1539 1539 1539 1540 1541 1542 1543 1543 1544 1544 1545 1545 1545 1545 1546 1547 1547 1547 1547 1546 1546 1545 1546 1546 1546 1546 1546 1547 1546 1546 1546 1546 1546 1546 1546 1546 1546 1546 1546 1546 1546 1546 1546 1546 1547 1547 1547 1547 1547 1547 1547 1547 1547 1547 1547 1547 1547 1547 1547 1547 1547 1547 1547 1547 1547 1547 1547 1547
1525 1525 1525 1525 1526 1526 1526 1526 1526 1526 1527 1527 1528 1528 1529 1530 1530 1531 1531 1531 1531 1531 1532 1533 1534 1534 1535 1535 1535 1536 1536 1536 1537 1537 1538 1538 1539 1539 1540 1540 1541 1542 1543 1543 1544 1544 1544 1545 1545 1545 1546 1547 1547 1546 1546 1545 1545 1546 1546 1546 1546 1546 1546 1546 1546 1546 1546 1546 1546 1546 1546 1546 1546 1546 1546 1546 1546 1546 1546 1546 1547 1547 1547 1547 1547 1547 1547 1547 1547 1547 1547 1547 1547 1547 1547 1547 1547 1547 1547 1547 1547 1547 1547
1524 1524 1525 1525 1525 1525 1525 1525 1526 1526 1526 1527 1527 1528 1529 1529 1529 1530 1530 1531 1531 1531 1532 1532 1533 1534 1535 1535 1535 1536 1536 1536 1536 1537 1537 1538 1538 1538 1539 1540 1541 1541 1542 1543 1543 1544 1544 1544 1544 1545 1546 1546 1546 1546 1545 1545 1545 1546 1546 1546 1546 1546 1546 1546 1546 1546 1546 1546 1546 1546 1546 1546 1546 1546 1546 1546 1546 1546 1546 1546 1547 1547 1547 1547 1547 1547 1547 1547 1547 1547 1547 1547 1547 1547 1547 1547 1547 1547 1547 1547 1547 1547 1547
1524 1524 1524 1525 1525 1525 1525 1525 1525 1525 1526 1526 1526 1527 1528 1528 1529 1529 1529 1530 1530 1531 1531 1532 1533 1534 1534 1535 1535 1535 1536 1536 1536 1536 1537 1537 1538 1538 1538 1539 1540 1541 1541 1542 1543 1543 1544 1544 1544 1545 1546 1546 1546 1545 1545 1545 1545 1546 1546 1546 1546 1546 1546 1546 1546 1546 1546 1546 1546 1546 1546 1546 1546 1546 1546 1546 1546 1546 1546 1546 1546 1547 1547 1547 1547 1547 1547 1547 1547 1547 1547 1547 1547 1547 1547 1547 1547 1547 1547 1547 1547 1547 1547
1523 1523 1524 1524 1524 1525 1525 1525 1525 1525 1525 1525 1526 1526 1527 1527 1528 1528 1529 1529 1530 1530 1531 1531 1532 1533 1534 1534 1535 1535 1535 1535 1536 1536 1537 1537 1537 1538 1538 1539 1539 1540 1541 1542 1542 1543 1543 1544 1544 1544 1545 1545 1545 1545 1545 1545 1545 1546 1546 1546 1546 1546 1546 1546 1545 1545 1545 1545 1545 1545 1545 1545 1545 1546 1546 1546 1546 1546 1546 1546 1546 1546 1546 1547 1547 1547 1547 1547 1547 1547 1547 1547 1547 1547 1547 1547 1547 1547 1547 1547 1547 1546 1546
1522 1523 1523 1523 1524 1524 1524 1524 1524 1524 1524 1525 1525 1525 1526 1526 1527 1528 1528 1529 1529 1530 1531 1531 1531 1532 1533 1533 1534 1535 1535 1535 1535 1536 1536 1537 1537 1538 1538 1538 1539 1540 1541 1541 1542 1542 1543 1543 1544 1544 1545 1545 1545 1544 1544 1545 1545 1546 1546 1546 1546 1546 1546 1545 1545 1545 1545 1545 1545 1545 1545 1545 1545 1545 1546 1546 1546 1546 1546 1546 1546 1546 1546 1546 1546 1546 1547 1547 1547 1547 1547 1547 1547 1547 1547 1547 1547 1547 1546 1546 1546 1546 1546
1522 1522 1523 1523 1523 1524 1524 1524 1524 1524 1524 1524 1524 1524 1525 1526 1526 1527 1527 1528 1529 1529 1530 1530 1531 1531 1532 1533 1533 1534 1534 1534 1535 1535 1536 1537 1537 1538 1538 1538 1539 1539 1540 1541 1541 1542 1542 1543 1543 1543 1544 1544 1544 1544 1544 1544 1545 1545 1546 1546 1546 1546 1545 1545 1545 1545 1545 1545 1545 1545 1545 1545 1545 1545 1545 1546 1546 1546 1546 1546 1546 1546 1546 1546 1546 1546 1546 1546 1546 1546 1546 1547 1546 1546 1546 1546 1546 1546 1546 1546 1546 1546 1546
1521 1522 1522 1522 1523 1523 1524 1523 1523 1523 1523 1523 1524 1524 1524 1525 1526 1526 1527 1527 1528 1529 1529 1530 1530 1531 1531 1532 1532 1533 1534 1534 1534 1535 1536 1536 1537 1538 1538 1538 1538 1539 1540 1540 1541 1541 1542 1542 1543 1543 1544 1544 1544 1543 1543 1544 1545 1545 1545 1545 1545 1545 1545 1545 1545 1545 1545 1545 1545 1545 1545 1545 1545 1545 1545 1545 1545 1545 1546 1546 1546 1546 1546 1546 1546 1546 1546 1546 1546 1546 1546 1546 1546 1546 1546 1546 1546 1546 1546 1546 1546 1546 1545
1520 1521 1521 1522 1522 1523 1523 1523 1523 1523 1523 1523 1523 1523 1524 1524 1525 1526 1526 1527 1527 1528 1529 1529 1529 1530 1530 1531 1531 1532 1533 1533 1534 1534 1535 1536 1536 1537 1537 1538 1538 1538 1539 1540 1540 1541 1541 1541 1542 1543 1543 1543 1543 1543 1543 1543 1544 1545 1545 1545 1545 1545 1545 1545 1544 1544 1544 1545 1545 1545 1545 1545 1545 1545 1545 1545 1545 1545 1545 1545 1545 1545 1546 1546 1546 1546 1546 1546 1546 1546 1546 1546 1546 1546 1546 1546 1546 1546 1546 1545 1545 1545 1545
1519 1520 1521 1521 1522 1522 1522 1522 1522 1522 1522 1522 1522 1523 1523 1524 1524 1525 1526 1526 1526 1527 1528 1528 1529 1529 1529 1530 1530 1531 1532 1532 1533 1533 1534 1535 1535 1536 1536 1537 1537 1538 1539 1539 1540 1540 1541 1541 1541 1542 1543 1543 1543 1542 1542 1543 1543 1544 1544 1544 1545 1545 1545 1544 1544 1544 1544 1544 1544 1544 1545 1545 1545 1545 1545 1545 1545 1545 1545 1545 1545 1545 1545 1545 1545 1545 1545 1545 1545 1545 1545 1545 1545 1545 1545 1545 1545 1545 1545 1545 1545 1544 1544
1518 1519 1519 1520 1521 1521 1521 1522 1522 1521 1521 1521 1521 1522 1523 1523 1524 1524 1525 1525 1526 1526 1527 1527 1528 1528 1528 1529 1530 1530 1531 1531 1531 1532 1533 1534 1535 1535 1536 1536 1537 1538 1538 1539 1539 1540 1540 1540 1541 1542 1542 1542 1543 1542 1542 1542 1542 1543 1544 1544 1544 1544 1544 1544 1544 1544 1544 1544 1544 1544 1544 1545 1545 1545 1545 1545 1545 1545 1545 1545 1545 1545 1545 1545 1545 1545 1544 1545 1545 1545 1545 1545 1545 1545 1545 1545 1544 1544 1544 1544 1544 1544 1543
1517 1518 1518 1519 1520 1520 1521 1521 1521 1521 1521 1521 1521 1521 1522 1522 1523 1523 1523 1524 1525 1525 1526 1526 1526 1527 1528 1528 1529 1530 1530 1530 1531 1531 1532 1533 1534 1535 1535 1536 1536 1537 1537 1538 1538 1539 1539 1540 1541 1541 1542 1542 1542 1542 1541 1541 1542 1542 1543 1543 1544 1544 1544 1544 1544 1544 1544 1544 1544 1544 1544 1545 1545 1545 1545 1545 1545 1545 1545 1544 1544 1544 1544 1544 1544 1544 1544 1544 1544 1544 1544 1544 1544 1544 1544 1544 1544 1544 1544 1543 1543 1543 1542
1516 1517 1517 1518 1518 1519 1519 1520 1520 1520 1520 1520 1520 1521 1521 1521 1522 1522 1522 1523 1523 1524 1525 1525 1526 1526 1527 1528 1529 1530 1530 1530 1530 1531 1531 1533 1533 1534 1535 1535 1536 1536 1537 1537 1538 1538 1538 1539 1540 1541 1541 1541 1542 1542 1541 1541 1541 1542 1542 1543 1543 1543 1544 1544 1544 1544 1543 1543 1544 1544 1545 1545 1545 1545 1545 1545 1545 1545 1544 1544 1544 1544 1544 1544 1544 1544 1544 1544 1544 1544 1544 1544 1543 1543 1543 1543 1543 1543 1543 1543 1542 1542 1542
1515 1516 1516 1517 1517 1517 1518 1519 1519 1519 1519 1519 1520 1520 1520 1521 1521 1522 1522 1522 1522 1523 1524 1524 1525 1526 1527 1528 1528 1529 1530 1530 1530 1530 1531 1532 1533 1534 1534 1535 1535 1536 1536 1537 1537 1537 1538 1539 1540 1541 1541 1541 1541 1541 1541 1541 1541 1541 1542 1542 1542 1543 1543 1543 1543 1543 1543 1543 1543 1544 1544 1545 1545 1545 1545 1545 1545 1545 1544 1544 1544 1544 1543 1543 1543 1543 1543 1543 1543 1543 1543 1543 1543 1542 1542 1542 1542 1542 1542 1542 1542 1541 1541
1514 1515 1516 1516 1516 1516 1517 1518 1518 1518 1519 1519 1519 1519 1519 1520 1521 1521 1521 1521 1521 1522 1523 1524 1524 1525 1526 1527 1528 1528 1529 1530 1530 1530 1531 1531 1532 1533 1534 1534 1535 1535 1536 1536 1536 1536 1537 1538 1539 1539 1540 1540 1541 1541 1540 1540 1540 1541 1541 1541 1542 1542 1542 1543 1543 1543 1543 1543 1543 1543 1544 1544 1544 1544 1544 1544 1544 1544 1544 1544 1544 1543 1543 1543 1542 1542 1543 1543 1543 1542 1542 1542 1542 1542 1542 1542 1541 1541 1541 1541 1541 1541 1540
1513 1514 1515 1515 1515 1515 1516 1516 1517 1518 1518 1518 1518 1518 1519 1519 1520 1521 1521 1521 1521 1521 1522 1523 1524 1525 1525 1526 1527 1528 1529 1529 1529 1530 1530 1531 1531 1532 1532 1533 1533 1534 1534 1535 1536 1536 1536 1537 1537 1538 1539 1539 1540 1540 1539 1540 1540 1540 1540 1541 1541 1541 1542 1542 1542 1542 1543 1543 1543 1543 1543 1543 1543 1543 1543 1543 1544 1544 1544 1544 1543 1543 1543 1542 1542 1542 1542 1542 1542 1542 1542 1542 1542 1542 1542 1541 1541 1541 1541 1540 1540 1540 1539
1511 1512 1514 1514 1514 1514 1514 1515 1516 1516 1517 1517 1518 1518 1518 1518 1519 1519 1520 1521 1521 1521 1522 1522 1523 1524 1525 1526 1526 1527 1528 1528 1528 1529 1529 1530 1530 1531 1531 1532 1532 1533 1533 1534 1535 1535 1536 1536 1536 1537 1538 1538 1539 1539 1539 1539 1539 1539 1540 1540 1540 1541 1541 1541 1542 1542 1542 1542 1542 1542 1542 1543 1543 1543 1542 1542 1542 1542 1543 1543 1543 1542 1542 1542 1542 1542 1542 1542 1542 1542 1542 1541 1541 1541 1541 1541 1541 1541 1540 1540 1539 1539 1540
1510 1511 1512 1513 1513 1512 1513 1514 1514 1515 1516 1517 1517 1517 1517 1517 1517 1518 1519 1520 1521 1521 1522 1522 1522 1523 1524 1524 1525 1526 1527 1527 1528 1528 1529 1529 1530 1530 1531 1531 1532 1532 1532 1533 1534 1534 1535 1535 1536 1536 1537 1538 1538 1538 1538 1538 1538 1538 1539 1539 1540 1540 1541 1541 1541 1541 1541 1541 1541 1542 1542 1542 1542 1542 1542 1542 1541 1542 1542 1542 1542 1542 1541 1541 1541 1541 1541 1541 1541 1541 1541 1541 1541 1540 1540 1540 1540 1540 1539 1539 1539 1539 1539
1509 1510 1511 1511 1511 1511 1512 1513 1513 1514 1515 1516 1516 1516 1516 1516 1516 1517 1517 1518 1519 1520 1521 1522 1522 1523 1523 1523 1524 1524 1526 1526 1527 1527 1528 1529 1529 1530 1530 1531 1531 1532 1532 1532 1533 1534 1534 1534 1535 1535 1536 1537 1537 1538 1537 1537 1537 1537 1538 1538 1539 1539 1540 1540 1540 1541 1541 1541 1541 1541 1541 1541 1541 1541 1541 1541 1541 1541 1541 1541 1541 1541 1541 1541 1541 1541 1541 1540 1540 1540 1540 1540 1540 1540 1539 1539 1539 1539 1538 1538 1538 1538 1537
1508 1508 1509 1510 1510 1510 1511 1511 1512 1513 1514 1515 1515 1515 1515 1514 1515 1516 1516 1517 1518 1519 1520 1521 1522 1522 1523 1523 1523 1523 1523 1524 1526 1526 1527 1528 1529 1529 1530 1530 1531 1531 1531 1532 1532 1533 1533 1534 1534 1534 1535 1536 1536 1537 1536 1536 1536 1536 1537 1537 1538 1538 1539 1539 1539 1540 1540 1540 1540 1540 1540 1540 1540 1540 1540 1540 1540 1540 1540 1540 1540 1540 1540 1540 1540 1540 1539 1539 1539 1539 1539 1539 1539 1538 1538 1538 1538 1538 1537 1537 1537 1537 1536
1506 1507 1508 1508 1509 1510 1510 1511 1511 1512 1513 1514 1514 1515 1514 1513 1513 1514 1515 1516 1516 1517 1519 1520 1521 1522 1522 1522 1522 1522 1522 1522 1524 1525 1526 1527 1528 1529 1529 1529 1530 1530 1531 1531 1532 1532 1533 1533 1533 1534 1534 1534 1535 1536 1536 1535 1535 1536 1536 1536 1537 1537 1538 1538 1538 1539 1539 1539 1539 1539 1539 1539 1539 1539 1539 1539 1539 1539 1539 1539 1539 1539 1539 1539 1538 1538 1538 1538 1538 1538 1538 1538 1538 1537 1537 1537 1537 1537 1536 1536 1536 1536 1535
1505 1505 1506 1507 1508 1508 1509 1509 1510 1511 1513 1513 1513 1514 1513 1512 1512 1513 1514 1515 1515 1516 1517 1518 1520 1521 1521 1521 1521 1521 1521 1522 1523 1524 1526 1527 1527 1528 1528 1529 1529 1529 1530 1530 1531 1531 1532 1533 1533 1533 1533 1534 1534 1535 1535 1534 1534 1534 1535 1535 1536 1536 1536 1537 1537 1538 1538 1538 1538 1538 1538 1538 1538 1538 1538 1538 1538 1538 1538 1538 1538 1538 1538 1538 1537 1537 1537 1537 1537 1537 1537 1537 1536 1536 1536 1536 1536 1536 1535 1535 1535 1534 1534
1503 1504 1504 1505 1506 1506 1507 1508 1509 1511 1511 1512 1512 1513 1512 1511 1511 1512 1513 1514 1515 1515 1516 1517 1518 1519 1520 1520 1520 1520 1521 1521 1522 1523 1525 1526 1526 1527 1527 1528 1528 1528 1529 1529 1530 1531 1531 1532 1532 1533 1533 1533 1534 1534 1534 1534 1534 1533 1534 1534 1534 1535 1535 1536 1536 1536 1537 1537 1537 1537 1537 1537 1537 1537 1537 1537 1537 1537 1537 1537 1537 1537 1537 1536 1536 1536 1536 1536 1536 1536 1536 1536 1535 1535 1535 1535 1535 1535 1534 1534 1534 1533 1533
1502 1502 1503 1504 1504 1505 1506 1507 1508 1509 1510 1510 1511 1511 1511 1511 1510 1511 1512 1513 1513 1514 1515 1516 1517 1518 1518 1519 1518 1519 1520 1521 1522 1523 1524 1525 1525 1526 1526 1527 1527 1527 1528 1528 1529 1530 1530 1531 1531 1532 1532 1533 1533 1533 1533 1533 1533 1533 1533 1533 1533 1533 1534 1535 1535 1536 1536 1536 1536 1536 1536 1536 1536 1536 1536 1536 1536 1536 1536 1536 1536 1536 1536 1536 1536 1535 1535 1535 1535 1535 1535 1534 1534 1534 1534 1534 1533 1533 1533 1533 1532 1532 1532
1501 1501 1502 1502 1503 1504 1505 1505 1506 1507 1507 1508 1509 1510 1510 1510 1509 1509 1510 1511 1512 1513 1514 1515 1516 1517 1517 1517 1518 1518 1519 1520 1521 1522 1523 1524 1524 1525 1526 1526 1526 1527 1527 1527 1528 1528 1529 1530 1530 1531 1531 1531 1532 1532 1532 1533 1532 1532 1532 1532 1532 1532 1532 1533 1534 1535 1535 1535 1535 1535 1535 1535 1535 1535 1535 1535 1535 1535 1535 1535 1535 1535 1535 1535 1534 1534 1534 1534 1534 1534 1533 1533 1533 1533 1533 1532 1532 1532 1532 1531 1531 1531 1531
1499 1500 1501 1501 1501 1502 1503 1504 1504 1505 1505 1506 1507 1508 1509 1509 1509 1508 1509 1509 1510 1511 1512 1514 1515 1516 1516 1517 1517 1517 1518 1519 1520 1521 1522 1523 1523 1524 1525 1525 1525 1526 1526 1526 1526 1527 1528 1528 1529 1529 1530 1530 1531 1531 1531 1531 1532 1532 1531 1531 1531 1531 1531 1532 1533 1533 1534 1534 1534 1534 1534 1534 1534 1534 1534 1534 1534 1534 1534 1534 1534 1534 1533 1533 1533 1533 1533 1533 1533 1532 1532 1532 1532 1532 1531 1531 1531 1531 1531 1530 1530 1530 1529
1498 1499 1499 1500 1500 1501 1501 1502 1502 1503 1503 1504 1505 1506 1508 1508 1508 1507 1507 1508 1509 1510 1511 1512 1513 1515 1516 1516 1516 1517 1518 1518 1519 1520 1521 1522 1522 1523 1523 1524 1524 1525 1525 1525 1526 1526 1527 1527 1527 1528 1528 1529 1529 1530 1530 1530 1531 1531 1531 1530 1530 1530 1530 1531 1531 1532 1532 1533 1533 1533 1533 1533 1533 1533 1533 1533 1533 1533 1533 1533 1532 1532 1532 1532 1532 1532 1532 1532 1531 1531 1531 1531 1531 1531 1531 1530 1530 1530 1529 1529 1528 1528 1528
1496 1497 1498 1498 1499 1499 1500 1500 1501 1501 1502 1503 1504 1505 1506 1507 1506 1506 1505 1506 1507 1508 1509 1511 1512 1513 1514 1515 1516 1516 1517 1517 1518 1519 1519 1520 1521 1522 1522 1523 1523 1523 1524 1524 1524 1525 1526 1526 1526 1527 1527 1527 1528 1528 1529 1529 1529 1530 1530 1529 1529 1529 1529 1530 1530 1531 1531 1531 1531 1531 1532 1532 1532 1532 1532 1532 1532 1532 1532 1531 1531 1531 1531 1531 1531 1531 1531 1531 1531 1530 1530 1530 1530 1529 1529 1529 1529 1528 1528 1527 1527 1527 1526
1494 1495 1496 1496 1497 1497 1498 1498 1498 1499 1500 1501 1502 1504 1505 1505 1505 1504 1504 1504 1505 1506 1508 1509 1511 1512 1513 1514 1515 1515 1516 1517 1517 1517 1518 1519 1520 1521 1521 1521 1522 1522 1522 1522 1523 1524 1524 1525 1526 1526 1526 1526 1526 1527 1527 1527 1528 1528 1528 1528 1528 1528 1528 1528 1529 1529 1529 1530 1530 1530 1531 1531 1531 1531 1531 1531 1531 1531 1531 1531 1530 1530 1530 1530 1530 1530 1530 1530 1529 1529 1529 1529 1529 1528 1528 1528 1527 1527 1527 1526 1526 1526 1525
1492 1493 1494 1494 1495 1496 1496 1497 1497 1498 1499 1500 1501 1502 1503 1503 1503 1503 1503 1503 1504 1505 1506 1507 1509 1510 1511 1512 1513 1514 1515 1516 1516 1516 1517 1517 1518 1519 1520 1520 1521 1521 1521 1521 1522 1522 1523 1524 1525 1525 1525 1525 1525 1525 1526 1526 1526 1527 1527 1527 1527 1527 1527 1527 1527 1528 1528 1528 1528 1529 1529 1529 1529 1530 1530 1530 1530 1530 1530 1530 1529 1529 1529 1529 1529 1529 1529 1528 1528 1528 1528 1528 1527 1527 1527 1526 1526 1526 1526 1525 1525 1524 1524
1490 1491 1491 1492 1493 1494 1495 1496 1496 1497 1497 1498 1499 1500 1501 1501 1502 1502 1502 1502 1502 1503 1504 1505 1506 1508 1510 1511 1511 1512 1513 1514 1515 1516 1516 1516 1517 1518 1518 1519 1519 1520 1520 1520 1521 1521 1522 1523 1524 1524 1524 1524 1524 1524 1524 1525 1525 1525 1526 1526 1526 1526 1526 1526 1526 1526 1526 1526 1527 1527 1527 1528 1528 1528 1528 1528 1528 1529 1529 1528 1528 1528 1528 1528 1528 1527 1527 1527 1527 1527 1527 1526 1526 1526 1526 1525 1525 1525 1524 1524 1523 1523 1522
1488 1489 1489 1491 1491 1492 1493 1494 1495 1495 1496 1496 1498 1499 1499 1500 1501 1501 1501 1501 1501 1502 1503 1503 1504 1506 1508 1509 1510 1511 1511 1512 1513 1514 1515 1516 1516 1517 1517 1518 1518 1518 1519 1519 1519 1520 1521 1522 1522 1523 1523 1523 1523 1523 1523 1523 1524 1524 1524 1524 1525 1525 1525 1525 1526 1526 1526 1526 1526 1526 1526 1526 1526 1527 1527 1527 1527 1527 1527 1527 1527 1527 1527 1527 1526 1526 1526 1526 1526 1526 1526 1526 1525 1525 1524 1524 1524 1523 1523 1522 1522 1522 1521
1486 1486 1487 1488 1490 1491 1491 1492 1493 1493 1494 1495 1496 1497 1497 1498 1499 1500 1500 1501 1501 1501 1502 1502 1503 1504 1506 1507 1508 1509 1510 1511 1512 1513 1514 1515 1515 1516 1516 1516 1517 1517 1517 1518 1518 1519 1520 1521 1521 1521 1521 1522 1522 1522 1522 1522 1522 1523 1523 1523 1523 1524 1524 1524 1524 1525 1525 1525 1525 1525 1525 1525 1525 1525 1526 1526 1526 1526 1526 1526 1526 1526 1526 1526 1526 1526 1525 1525 1525 1525 1525 1524 1524 1523 1523 1523 1522 1522 1522 1521 1521 1521 1520
1484 1485 1486 1486 1487 1488 1489 1490 1491 1492 1492 1494 1495 1495 1496 1496 1497 1498 1499 1499 1500 1501 1501 1502 1502 1503 1504 1505 1506 1507 1508 1509 1510 1511 1513 1514 1514 1515 1515 1516 1516 1516 1516 1516 1517 1518 1519 1520 1520 1520 1520 1521 1521 1521 1521 1521 1521 1521 1521 1522 1522 1522 1522 1523 1523 1523 1524 1524 1524 1524 1524 1524 1524 1524 1524 1525 1525 1525 1525 1525 1525 1525 1525 1525 1525 1524 1524 1524 1524 1524 1523 1523 1523 1522 1522 1521 1521 1521 1521 1520 1520 1519 1519
1482 1483 1484 1485 1486 1486 1487 1488 1489 1490 1491 1492 1493 1493 1494 1495 1495 1496 1497 1498 1499 1499 1500 1501 1501 1502 1502 1503 1504 1505 1506 1508 1509 1511 1512 1512 1513 1513 1514 1515 1515 1515 1515 1515 1516 1517 1518 1518 1519 1519 1519 1519 1519 1520 1520 1520 1521 1521 1521 1521 1521 1521 1521 1521 1522 1522 1522 1523 1523 1523 1523 1524 1524 1523 1523 1524 1524 1524 1524 1524 1524 1524 1524 1524 1524 1524 1523 1523 1523 1522 1522 1522 1521 1521 1521 1520 1520 1520 1519 1519 1518 1518 1518
1480 1481 1481 1482 1483 1484 1485 1486 1487 1488 1489 1490 1491 1491 1492 1493 1493 1494 1496 1496 1497 1498 1499 1500 1500 1501 1501 1502 1503 1504 1506 1507 1508 1509 1511 1511 1512 1512 1513 1513 1514 1514 1514 1515 1516 1516 1517 1517 1517 1517 1518 1518 1518 1518 1519 1519 1519 1520 1520 1520 1520 1520 1520 1521 1521 1521 1521 1521 1522 1522 1522 1523 1523 1523 1523 1523 1523 1523 1523 1523 1523 1523 1523 1523 1523 1522 1522 1522 1522 1521 1521 1521 1520 1520 1520 1519 1519 1518 1518 1518 1517 1517 1516
1477 1478 1479 1480 1481 1482 1483 1484 1485 1486 1487 1488 1489 1489 1490 1491 1491 1492 1494 1495 1496 1496 1497 1498 1499 1499 1499 1501 1502 1504 1505 1506 1507 1508 1509 1510 1511 1511 1511 1512 1512 1513 1514 1515 1515 1516 1516 1516 1516 1516 1516 1516 1517 1517 1517 1517 1518 1518 1518 1519 1519 1519 1519 1520 1520 1520 1520 1520 1521 1521 1521 1522 1522 1522 1522 1522 1522 1522 1521 1521 1522 1522 1522 1522 1522 1521 1521 1521 1521 1520 1520 1519 1519 1519 1518 1518 1518 1517 1517 1516 1516 1516 1515
1475 1476 1477 1478 1479 1480 1481 1482 1483 1484 1485 1486 1487 1487 1488 1489 1490 1491 1492 1493 1494 1495 1496 1497 1497 1498 1498 1499 1501 1502 1503 1505 1506 1507 1508 1508 1509 1509 1510 1510 1511 1512 1513 1514 1514 1515 1515 1515 1515 1515 1515 1515 1516 1516 1516 1516 1516 1517 1517 1517 1518 1518 1518 1518 1519 1519 1519 1519 1520 1520 1521 1521 1521 1521 1521 1521 1521 1521 1521 1520 1520 1520 1521 1521 1520 1520 1520 1520 1519 1519 1518 1518 1518 1517 1517 1517 1516 1516 1516 1515 1515 1515 1514
1473 1474 1475 1476 1477 1477 1479 1480 1481 1482 1483 1484 1485 1486 1486 1487 1489 1490 1491 1492 1493 1494 1495 1496 1496 1496 1497 1497 1499 1501 1502 1503 1504 1506 1506 1507 1508 1508 1508 1509 1510 1511 1512 1513 1513 1514 1514 1514 1514 1514 1514 1514 1514 1514 1515 1515 1515 1515 1516 1516 1516 1517 1517 1517 1517 1518 1518 1518 1519 1519 1519 1520 1520 1520 1520 1520 1520 1519 1519 1519 1519 1519 1519 1519 1519 1519 1519 1519 1518 1518 1517 1517 1516 1516 1516 1516 1515 1515 1515 1514 1514 1513 1513
1471 1472 1473 1474 1475 1475 1476 1478 1479 1480 1481 1482 1483 1484 1485 1487 1488 1489 1490 1491 1492 1493 1494 1494 1495 1496 1496 1496 1497 1499 1500 1501 1503 1504 1505 1506 1506 1506 1506 1508 1509 1510 1511 1512 1512 1513 1513 1513 1513 1513 1513 1513 1513 1513 1513 1513 1514 1514 1514 1515 1515 1516 1516 1516 1516 1517 1517 1517 1517 1518 1518 1519 1519 1519 1519 1519 1518 1518 1518 1518 1518 1518 1518 1518 1517 1517 1517 1517 1517 1517 1516 1516 1516 1515 1515 1515 1514 1514 1514 1513 1513 1512 1512
1469 1470 1471 1471 1472 1473 1474 1476 1477 1478 1479 1481 1482 1483 1484 1486 1487 1488 1489 1490 1491 1491 1492 1492 1493 1494 1495 1496 1496 1497 1499 1500 1501 1502 1503 1503 1504 1504 1505 1507 1509 1510 1511 1511 1511 1512 1512 1512 1512 1512 1511 1511 1511 1511 1512 1512 1512 1513 1513 1514 1514 1514 1515 1515 1516 1516 1516 1516 1516 1517 1517 1517 1518 1518 1518 1517 1517 1517 1517 1517 1517 1517 1517 1516 1516 1516 1516 1516 1516 1516 1515 1515 1515 1514 1514 1514 1513 1513 1513 1512 1512 1511 1511
1467 1468 1468 1469 1470 1471 1472 1474 1476 1477 1478 1479 1481 1482 1483 1484 1486 1487 1488 1488 1489 1490 1490 1491 1492 1493 1494 1495 1496 1496 1497 1498 1499 1500 1501 1501 1502 1503 1505 1507 1508 1509 1509 1510 1510 1510 1510 1510 1510 1510 1510 1510 1510 1510 1511 1511 1511 1512 1512 1513 1513 1513 1514 1514 1515 1515 1515 1515 1515 1516 1516 1516 1516 1517 1517 1516 1516 1516 1516 1516 1516 1516 1516 1516 1515 1515 1515 1515 1514 1514 1514 1514 1514 1513 1513 1513 1512 1512 1512 1511 1511 1510 1510
1465 1466 1466 1467 1468 1469 1471 1472 1474 1475 1476 1478 1479 1480 1481 1482 1484 1485 1486 1487 1488 1489 1489 1490 1491 1491 1493 1494 1495 1496 1496 1497 1498 1499 1500 1501 1502 1503 1505 1506 1507 1507 1508 1508 1509 1508 1508 1508 1509 1509 1509 1509 1509 1509 1509 1510 1510 1511 1511 1511 1512 1512 1513 1513 1514 1514 1514 1514 1514 1515 1515 1515 1516 1516 1516 1516 1516 1515 1515 1515 1515 1515 1515 1515 1514 1514 1514 1513 1513 1513 1513 1513 1513 1513 1512 1512 1511 1511 1511 1511 1510 1509 1509
1463 1464 1464 1465 1466 1467 1469 1471 1472 1474 1475 1476 1477 1478 1480 1481 1482 1483 1484 1485 1486 1487 1488 1489 1490 1490 1491 1492 1493 1494 1495 1496 1497 1498 1500 1500 1501 1502 1503 1504 1504 1505 1506 1507 1507 1506 1506 1507 1507 1508 1508 1508 1508 1508 1508 1509 1509 1510 1510 1511 1511 1511 1512 1512 1513 1513 1513 1513 1514 1514 1514 1514 1514 1514 1514 1514 1514 1514 1514 1514 1514 1514 1514 1513 1513 1513 1513 1513 1512 1512 1512 1513 1512 1512 1512 1511 1511 1511 1510 1510 1509 1509 1508
1461 1461 1462 1463 1465 1466 1467 1469 1471 1472 1473 1474 1475 1477 1478 1479 1480 1481 1482 1483 1484 1486 1486 1487 1488 1489 1490 1491 1492 1493 1493 1494 1496 1497 1498 1499 1500 1500 1501 1502 1503 1504 1505 1505 1505 1505 1505 1506 1506 1507 1507 1507 1507 1507 1507 1508 1508 1509 1509 1510 1510 1511 1511 1511 1512 1512 1512 1513 1513 1513 1513 1513 1513 1513 1513 1513 1513 1513 1513 1513 1513 1513 1513 1513 1513 1512 1512 1512 1511 1512 1512 1512 1512 1511 1511 1511 1510 1510 1509 1509 1508 1507 1507
1459 1460 1460 1462 1463 1464 1466 1467 1469 1470 1471 1472 1474 1475 1476 1477 1478 1479 1481 1482 1483 1484 1485 1486 1487 1487 1488 1489 1490 1491 1492 1493 1494 1496 1497 1498 1499 1499 1500 1501 1502 1503 1503 1503 1502 1503 1505 1505 1506 1506 1506 1506 1506 1506 1506 1507 1507 1508 1508 1509 1509 1510 1510 1511 1511 1511 1511 1512 1512 1512 1512 1512 1512 1512 1512 1512 1512 1512 1512 1512 1512 1512 1512 1512 1512 1512 1511 1511 1511 1511 1512 1512 1511 1511 1510 1510 1509 1509 1508 1508 1507 1506 1506
1457 1458 1459 1460 1461 1463 1464 1466 1467 1468 1470 1471 1472 1473 1475 1476 1477 1479 1480 1481 1482 1483 1484 1484 1485 1486 1487 1488 1489 1491 1491 1492 1493 1494 1496 1497 1498 1499 1499 1500 1500 1500 1500 1500 1501 1502 1504 1504 1505 1505 1505 1505 1506 1506 1506 1506 1507 1507 1508 1508 1508 1509 1509 1510 1510 1510 1511 1511 1511 1511 1511 1511 1511 1511 1511 1511 1511 1511 1511 1511 1511 1511 1512 1511 1511 1511 1510 1510 1510 1510 1511 1511 1510 1510 1509 1509 1508 1508 1507 1506 1506 1505 1504
1456 1457 1458 1459 1460 1461 1463 1464 1466 1467 1468 1469 1471 1472 1473 1475 1476 1477 1478 1479 1480 1481 1482 1483 1484 1485 1486 1487 1489 1490 1490 1491 1491 1493 1494 1496 1496 1497 1498 1498 1498 1498 1499 1499 1500 1501 1502 1503 1503 1503 1503 1504 1505 1505 1506 1506 1506 1507 1507 1507 1508 1508 1508 1509 1509 1509 1509 1510 1510 1510 1510 1511 1511 1511 1511 1511 1511 1511 1511 1511 1511 1511 1511 1511 1511 1510 1509 1509 1509 1510 1510 1510 1509 1509 1509 1508 1508 1507 1506 1506 1505 1504 1503
1454 1456 1457 1458 1459 1460 1461 1463 1464 1465 1466 1468 1469 1471 1472 1473 1475 1476 1477 1478 1479 1480 1481 1481 1482 1483 1484 1486 1488 1489 1489 1490 1490 1491 1493 1494 1495 1496 1496 1497 1497 1497 1498 1499 1499 1500 1501 1501 1502 1502 1502 1503 1504 1504 1505 1505 1506 1506 1506 1507 1507 1507 1508 1508 1508 1508 1508 1509 1509 1509 1510 1510 1510 1510 1510 1510 1511 1511 1510 1510 1510 1510 1510 1510 1510 1509 1509 1509 1509 1510 1509 1509 1509 1508 1508 1507 1507 1506 1505 1504 1503 1502 1501
1453 1454 1455 1456 1458 1459 1460 1462 1463 1464 1465 1466 1468 1469 1470 1472 1473 1475 1476 1477 1478 1478 1479 1480 1481 1481 1483 1485 1486 1487 1488 1488 1489 1491 1492 1492 1493 1494 1495 1496 1496 1496 1497 1498 1498 1499 1499 1500 1500 1501 1501 1501 1502 1503 1504 1504 1505 1505 1506 1506 1506 1506 1507 1507 1507 1508 1508 1508 1508 1509 1509 1509 1509 1509 1510 1510 1510 1510 1510 1509 1509 1509 1509 1509 1508 1508 1508 1509 1509 1509 1509 1508 1508 1507 1507 1506 1506 1505 1504 1503 1502 1501 1500
1452 1453 1454 1455 1456 1457 1459 1460 1461 1462 1464 1465 1466 1467 1469 1470 1472 1473 1474 1476 1476 1477 1477 1478 1479 1480 1481 1483 1485 1486 1486 1487 1488 1489 1490 1490 1491 1492 1493 1494 1495 1495 1496 1496 1497 1498 1498 1498 1499 1499 1500 1500 1501 1502 1502 1503 1504 1504 1505 1505 1506 1506 1506 1506 1507 1507 1507 1507 1508 1508 1508 1508 1509 1509 1509 1509 1509 1509 1509 1508 1508 1508 1508 1508 1507 1507 1508 1509 1509 1508 1508 1507 1507 1506 1506 1505 1505 1504 1503 1502 1501 1500 1499